Weather History for KSLH - June, 2013

Change the Weather History Date:

Saturday, June 1, 2013

  Actual Average (KPLN) Record (KPLN)
Temperature  
Mean Temperature 65 °F -  
Max Temperature 75 °F 69 °F 89 °F (2014)
Min Temperature 55 °F 43 °F 27 °F (1966)
Growing Degree Days 15 (Base 50)    
Moisture  
Dew Point 58 °F    
Average Humidity 85    
Maximum Humidity 95    
Minimum Humidity 59    
Precipitation  
Precipitation 0.00 in - - ()
Sea Level Pressure  
Sea Level Pressure 29.69 in    
Wind  
Wind Speed 3 mph (WSW)    
Max Wind Speed 15 mph    
Max Gust Speed 20 mph    
Visibility 10 miles    
Events Rain    
Averages and records for this station are not official NWS values.
T = Trace of Precipitation, MM = Missing Value Source: NWS Daily Summary

Daily Weather History Graph

Daily Weather History Graph

Search for Another Location

Airport or City:

Trip Planner

Search our weather history database for the weather conditions in past years. The results will help you decide how hot, cold, wet, or windy it might be!

Date:

Astronomy

Jun. 01, 2013 Rise Set
Actual Time 5:52 AM EDT 9:20 PM EDT
Civil Twilight 5:15 AM EDT 9:57 PM EDT
Nautical Twilight 4:26 AM EDT 10:46 PM EDT
Astronomical Twilight 3:23 AM EDT 11:50 PM EDT
Moon 2:07 AM EDT (6/1) 2:30 PM EDT (6/1)
Length of Visible Light 16h 42m
Length of Day
15h 28m
Last Quarter, 41% of the Moon is Illuminated
Jun 1
Last Quarter
Jun 8
New
Jun 16
First Quarter
Jun 23
Full
Jun 30
Last Quarter

Hourly Weather History & Observations

Time (EDT) Temp. Dew Point Humidity Pressure Visibility Wind Dir Wind Speed Gust Speed Precip Events Conditions
12:15 AM 55.9 °F 52.9 °F 89% 29.77 in 10.0 mi Calm Calm - N/A   Overcast
12:35 AM 56.7 °F 53.8 °F 90% 29.77 in 10.0 mi Calm Calm - N/A   Mostly Cloudy
12:55 AM 57.6 °F 54.5 °F 90% 29.77 in 10.0 mi Calm Calm - N/A   Mostly Cloudy
1:15 AM 57.9 °F 54.7 °F 89% 29.77 in 10.0 mi Calm Calm - N/A   Mostly Cloudy
1:35 AM 58.5 °F 55.4 °F 90% 29.77 in 10.0 mi Calm Calm - N/A   Overcast
1:55 AM 58.5 °F 55.4 °F 90% 29.76 in 10.0 mi Calm Calm - N/A   Overcast
2:15 AM 59.0 °F 55.6 °F 88% 29.76 in 10.0 mi Calm Calm - N/A   Mostly Cloudy
2:35 AM 59.0 °F 55.9 °F 90% 29.75 in 10.0 mi Calm Calm - N/A   Overcast
2:55 AM 58.6 °F 55.9 °F 91% 29.73 in 10.0 mi Calm Calm - N/A   Mostly Cloudy
3:15 AM 58.6 °F 56.3 °F 92% 29.72 in 10.0 mi Calm Calm - N/A   Scattered Clouds
3:35 AM 57.6 °F 55.0 °F 91% 29.71 in 10.0 mi Calm Calm - N/A   Clear
3:55 AM 56.5 °F 54.3 °F 92% 29.70 in 7.0 mi Calm Calm - N/A   Scattered Clouds
4:15 AM 57.0 °F 55.2 °F 94% 29.69 in 7.0 mi Calm Calm - N/A   Scattered Clouds
4:35 AM 56.7 °F 55.2 °F 95% 29.70 in 7.0 mi Calm Calm - N/A   Clear
4:55 AM 55.8 °F 54.3 °F 95% 29.69 in 5.0 mi Calm Calm - N/A   Clear
5:15 AM 55.6 °F 54.0 °F 94% 29.69 in 7.0 mi Calm Calm - N/A   Scattered Clouds
5:35 AM 55.2 °F 53.6 °F 94% 29.68 in 10.0 mi Calm Calm - N/A   Scattered Clouds
5:56 AM 55.4 °F 53.8 °F 94% 29.69 in 10.0 mi Calm Calm - N/A   Mostly Cloudy
6:15 AM 55.4 °F 53.6 °F 94% 29.68 in 10.0 mi Calm Calm - N/A   Overcast
6:35 AM 55.4 °F 53.8 °F 94% 29.69 in 10.0 mi Calm Calm - N/A   Scattered Clouds
6:56 AM 56.3 °F 54.5 °F 94% 29.68 in 10.0 mi Calm Calm - N/A   Scattered Clouds
7:15 AM 56.7 °F 54.9 °F 94% 29.66 in 10.0 mi Calm Calm - N/A   Mostly Cloudy
7:35 AM 61.7 °F 60.3 °F 95% 29.68 in 7.0 mi SSE 3.5 mph - N/A Rain Light Rain
7:55 AM 64.0 °F 62.6 °F 95% 29.69 in 4.0 mi SSE 8.1 mph - N/A Rain Rain
8:15 AM 64.9 °F 63.0 °F 93% 29.67 in 4.0 mi WSW 6.9 mph - N/A Rain Rain
8:35 AM 65.3 °F 62.6 °F 91% 29.68 in 10.0 mi SSW 9.2 mph - N/A Rain Light Rain
8:55 AM 65.3 °F 63.1 °F 93% 29.68 in 7.0 mi SSW 6.9 mph - N/A Rain Light Rain
9:15 AM 65.7 °F 63.7 °F 93% 29.66 in 10.0 mi Calm Calm - N/A   Drizzle
9:35 AM 66.2 °F 64.4 °F 94% 29.67 in 10.0 mi SSE 6.9 mph - N/A   Scattered Clouds
9:55 AM 67.1 °F 65.3 °F 94% 29.67 in 10.0 mi South 5.8 mph - N/A   Scattered Clouds
10:15 AM 68.2 °F 65.5 °F 91% 29.67 in 10.0 mi South 5.8 mph - N/A   Mostly Cloudy
10:35 AM 70.7 °F 65.5 °F 83% 29.66 in 10.0 mi South 6.9 mph - N/A   Overcast
10:55 AM 71.2 °F 63.7 °F 77% 29.66 in 10.0 mi SSW 9.2 mph - N/A   Mostly Cloudy
11:16 AM 72.5 °F 64.2 °F 75% 29.66 in 10.0 mi WSW 9.2 mph - N/A   Scattered Clouds
11:35 AM 73.4 °F 63.5 °F 71% 29.67 in 10.0 mi WSW 12.7 mph - N/A   Scattered Clouds
11:56 AM 72.3 °F 63.7 °F 74% 29.67 in 10.0 mi SW 10.4 mph 17.3 mph N/A   Mostly Cloudy
12:15 PM 71.6 °F 63.3 °F 75% 29.68 in 10.0 mi SW 6.9 mph 16.1 mph N/A   Overcast
12:35 PM 72.0 °F 62.6 °F 72% 29.68 in 10.0 mi SW 11.5 mph - N/A   Overcast
12:55 PM 73.4 °F 62.8 °F 69% 29.68 in 10.0 mi West 10.4 mph - N/A   Overcast
1:15 PM 74.3 °F 62.4 °F 66% 29.68 in 10.0 mi West 6.9 mph 16.1 mph N/A   Overcast
1:34 PM 73.6 °F 62.2 °F 68% 29.68 in 10.0 mi SW 13.8 mph - N/A   Overcast
1:55 PM 74.3 °F 62.1 °F 65% 29.67 in 10.0 mi WSW 10.4 mph - N/A   Overcast
2:15 PM 74.8 °F 62.1 °F 64% 29.67 in 10.0 mi WSW 9.2 mph - N/A   Scattered Clouds
2:35 PM 75.4 °F 61.5 °F 62% 29.67 in 10.0 mi SW 9.2 mph - N/A   Scattered Clouds
2:55 PM 75.9 °F 60.8 °F 59% 29.67 in 10.0 mi West 4.6 mph - N/A   Mostly Cloudy
3:15 PM 69.3 °F 59.7 °F 72% 29.66 in 10.0 mi ENE 6.9 mph - N/A   Overcast
3:35 PM 70.9 °F 60.8 °F 70% 29.67 in 10.0 mi East 5.8 mph - N/A   Scattered Clouds
3:55 PM 70.7 °F 60.8 °F 71% 29.67 in 10.0 mi NE 8.1 mph - N/A   Scattered Clouds
4:15 PM 69.4 °F 59.9 °F 72% 29.67 in 10.0 mi ENE 6.9 mph - N/A   Scattered Clouds
4:36 PM 68.0 °F 59.4 °F 74% 29.67 in 10.0 mi North 5.8 mph - N/A   Scattered Clouds
4:55 PM 63.9 °F 57.0 °F 78% 29.68 in 10.0 mi NNE 4.6 mph - N/A   Scattered Clouds
5:15 PM 64.4 °F 57.6 °F 78% 29.68 in 10.0 mi NE 5.8 mph - N/A   Scattered Clouds
5:35 PM 61.2 °F 56.7 °F 85% 29.67 in 10.0 mi ENE 6.9 mph - N/A   Scattered Clouds
5:55 PM 61.9 °F 57.6 °F 86% 29.67 in 10.0 mi NE 4.6 mph - N/A   Clear
6:15 PM 62.6 °F 58.5 °F 86% 29.68 in 10.0 mi NNE 4.6 mph - N/A   Clear
6:35 PM 63.9 °F 59.0 °F 84% 29.68 in 10.0 mi NNW 3.5 mph - N/A   Clear
6:55 PM 63.3 °F 58.6 °F 85% 29.70 in 10.0 mi North 11.5 mph 19.6 mph N/A   Mostly Cloudy
7:15 PM 61.3 °F 58.1 °F 89% 29.70 in 10.0 mi WNW 12.7 mph 17.3 mph N/A   Overcast
7:35 PM 62.2 °F 57.7 °F 85% 29.70 in 10.0 mi NW 8.1 mph - N/A   Mostly Cloudy
7:55 PM 61.0 °F 56.1 °F 84% 29.68 in 10.0 mi North 5.8 mph - N/A   Scattered Clouds
8:15 PM 58.5 °F 54.5 °F 87% 29.67 in 10.0 mi NNE 3.5 mph - N/A   Clear
8:36 PM 57.6 °F 54.0 °F 88% 29.67 in 10.0 mi Calm Calm - N/A   Clear
8:55 PM 56.3 °F 54.1 °F 92% 29.67 in 10.0 mi Calm Calm - N/A   Clear
9:15 PM 55.9 °F 53.6 °F 92% 29.67 in 10.0 mi SE 4.6 mph - N/A   Clear
9:36 PM 56.3 °F 54.0 °F 92% 29.67 in 10.0 mi Calm Calm - N/A   Clear
9:55 PM 56.8 °F 54.5 °F 92% 29.67 in 10.0 mi South 3.5 mph - N/A   Clear
10:15 PM 56.3 °F 54.3 °F 93% 29.70 in 10.0 mi WNW 15.0 mph - N/A   Scattered Clouds
10:35 PM 59.0 °F 55.9 °F 90% 29.69 in 10.0 mi West 3.5 mph - N/A   Overcast
10:55 PM 59.0 °F 55.4 °F 88% 29.68 in 10.0 mi Calm Calm - N/A   Overcast
11:15 PM 58.3 °F 55.8 °F 91% 29.67 in 10.0 mi Calm Calm - N/A   Mostly Cloudy
11:36 PM 57.2 °F 55.4 °F 94% 29.67 in 10.0 mi Calm Calm - N/A   Scattered Clouds
11:55 PM 57.2 °F 55.4 °F 94% 29.65 in 10.0 mi Calm Calm - N/A   Mostly Cloudy